Location: Saratoga Springs
(43.0831°N, 73.7850°W)
Time: 03:01:44
(UTC-04:00)

Vanguard 3 - Pass Details

Date: 25 April 2024
Orbit: 509 x 3232 km, 33.3° (Epoch: 26 May)

Event Time Altitude Azimuth Distance (km) Brightness Sun altitude
Exits shadow 03:28:38 30° 213° (SSW) 4,173 10.1 -23.3°
Maximum altitude 03:36:25 46° 165° (SSE) 3,033 9.7 -22.3°
Drops below altitude 10° 03:47:07 10° 97° (E) 4,008 11.2 -20.9°
Sets 03:49:54 0° 91° (E) 4,679 11.7 -20.6°
